• Processing (Info)

  • MPEC 2020-F17 : 2020 FG

    The following Minor Planet Electronic Circular may be linked-to from your own Web pages, but must not otherwise be redistributed electronically.

    A form allowing access to any MPEC is at the bottom of this page.


    Read MPEC 2020-F16 Read MPEC 2020-F18


    M.P.E.C. 2020-F17                                Issued 2020 March 17, 13:32 UT
    
         The Minor Planet Electronic Circulars contain information on unusual
             minor planets and routine data on comets.  They are published
        on behalf of Division F of the International Astronomical Union by the
              Minor Planet Center, Smithsonian Astrophysical Observatory,
                              Cambridge, MA 02138, U.S.A.
    
                 Prepared using the Tamkin Foundation Computer Network
    
                                  MPC@CFA.HARVARD.EDU
                URL https://www.minorplanetcenter.net/    ISSN 1523-6714
    
                                     2020 FG                                 
    
    
    Observations:
         K20F00G* C2020 03 16.23329 10 50 20.85 -03 57 58.6          20.3 GVEF017G96
         K20F00G  C2020 03 16.23862 10 50 22.22 -03 59 02.9          20.1 GVEF017G96
         K20F00G  C2020 03 16.24396 10 50 23.57 -04 00 08.1          20.2 GVEF017G96
         K20F00G  C2020 03 16.24930 10 50 24.94 -04 01 13.6          20.5 GVEF017G96
         K20F00G  C2020 03 16.35367 10 50 53.12 -04 23 13.2          20.2 GVEF017I52
         K20F00G  C2020 03 16.35489 10 50 53.51 -04 23 29.1          19.9 GVEF017I52
         K20F00G  C2020 03 16.35612 10 50 53.85 -04 23 45.3          20.2 GVEF017I52
         K20F00G  C2020 03 16.35734 10 50 54.17 -04 24 01.4          20.2 GVEF017I52
         K20F00G KC2020 03 16.83183310 55 32.79 -06 34 33.4          20.1 GVEF017L01
         K20F00G KC2020 03 16.83341910 55 33.64 -06 35 05.7          20.0 GVEF017L01
         K20F00G KC2020 03 16.83501810 55 34.56 -06 35 38.5          20.2 GVEF017L01
         K20F00G NC2020 03 16.83688810 55 35.52 -06 36 16.7          20.3 GVEF017L01
         K20F00G  C2020 03 16.88259 10 56 00.54 -06 52 41.0          19.7 VVEF017033
         K20F00G  C2020 03 16.88334 10 56 00.97 -06 52 57.1          19.6 VVEF017033
         K20F00G HC2020 03 16.99600 10 57 08.77 -07 34 48.2          20.1 GVEF017204
         K20F00G HC2020 03 17.00788 10 57 16.31 -07 39 32.7                VEF017204
         K20F00G KC2020 03 17.07777 10 58 36.55 -07 57 03.0          18.8 VUEF017X31
         K20F00G KC2020 03 17.08382 10 58 40.70 -07 59 40.6          19.1 VUEF017X31
         K20F00G KC2020 03 17.08833 10 58 43.73 -08 01 37.9          19.6 VUEF017X31
         K20F00G |C2020 03 17.12220 10 59 13.13 -08 16 53.0          19.5 VuEF017807
         K20F00G |C2020 03 17.12543 10 59 15.42 -08 18 20.7          19.5 VuEF017807
         K20F00G |C2020 03 17.12847 10 59 17.55 -08 19 43.6          19.7 VuEF017807
         K20F00G |C2020 03 17.13144 10 59 19.66 -08 21 04.7          19.6 VuEF017807
         K20F00G  C2020 03 17.13773 10 59 44.06 -08 33 45.4          19.0 GVEF017I52
         K20F00G  C2020 03 17.13822 10 59 44.44 -08 33 59.2          19.1 GVEF017I52
         K20F00G  C2020 03 17.13847 10 59 44.69 -08 34 06.1          19.2 GVEF017I52
         K20F00G KC2020 03 17.38667111 04 09.33 -10 34 07.6          18.8 GVEF017474
         K20F00G KC2020 03 17.38799011 04 10.77 -10 34 57.0          19.0 GVEF017474
         K20F00G KC2020 03 17.38930711 04 12.29 -10 35 46.8          19.1 GVEF017474
         K20F00G KC2020 03 17.38996711 04 13.01 -10 36 11.6          19.5 GVEF017474
         K20F00G KC2020 03 17.52810611 06 59.67 -12 11 10.5          18.8 GVEF017474
         K20F00G KC2020 03 17.52876511 07 00.55 -12 11 39.9          18.9 GVEF017474
         K20F00G KC2020 03 17.52942311 07 01.45 -12 12 09.7          18.8 GVEF017474
         K20F00G KC2020 03 17.53008111 07 02.28 -12 12 39.1          18.5 GVEF017474
    
    Observer details:
    033 Karl Schwarzschild Observatory, Tautenburg.  Observers U. Laux, S. Melnikov,
        B. Stecklum.  Measurer B. Stecklum.  1.34-m f/3 Schmidt + CCD.
    204 Schiaparelli Observatory.  Observer L. Buzzi.  0.84-m f/3.5 reflector + CCD.
    474 Mount John Observatory, Lake Tekapo.  Observers A. C. Gilmore, P. M. 
       Kilmartin.  Measurer P. M. Kilmartin.  1.0-m f/7.7 reflector + CCD.
    807 Cerro Tololo Observatory, La Serena.  Observers T. Linder, R. Holmes.  
        0.61-m f/6.5 astrograph + CCD.
    G96 Mt. Lemmon Survey.  Observer G. J. Leonard.  Measurers E. J. Christensen, 
       G. A. Farneth, D. C. Fuls, A. R. Gibbs, A. D. Grauer, H. Groeller, R. A. 
       Kowalski, S. M. Larson, G. J. Leonard, T. A. Pruyne, D. Rankin, R. L. Seaman,
        F. C. Shelly, K. W. Wierzchos.  1.5-m reflector + 10K CCD.
    I52 Steward Observatory, Mt. Lemmon Station.  Observers K. W. Wierzchos, H. 
       Groeller.  Measurers E. J. Christensen, G. A. Farneth, D. C. Fuls, A. R. 
       Gibbs, A. D. Grauer, H. Groeller, R. A. Kowalski, S. M. Larson, G. J. 
       Leonard, T. A. Pruyne, D. Rankin, R. L. Seaman, F. C. Shelly, K. W. 
       Wierzchos.  1.0-m reflector + CCD.
    L01 Visnjan Observatory, Tican.  Observer K. Korlevic.  1.0-m f/2.9 reflector + 
       CCD.
    X31 Galileo Galilei Observatory, Oro Verde.  Observers C. Fornari, E. 
       Reisenauer, J. Alonso, A. Lescano.  Measurer C. Fornari.  0.40-m f/8 
       Ritchey-Chretien + CCD.
    
    Orbital elements:
    2020 FG                                                  Earth MOID = 0.0024 AU
    Epoch 2020 May 31.0 TT = JDT 2459000.5                  Veres
    M   9.76541              (2000.0)            P               Q
    n   0.26967362     Peri.   50.02297     -0.60238621     +0.79820310
    a   2.3727050      Node   182.93747     -0.74170081     -0.56049819
    e   0.6493412      Incl.    1.82442     -0.29497587     -0.22071155
    P   3.65           H   27.9           G   0.15           U   6
    Residuals in seconds of arc
    200316 G96  0.1+  0.1+    200316 033  0.3+  0.5-    200317 I52  0.5-  0.2+
    200316 G96  0.2+  0.2+    200316 033  0.3+  0.6-    200317 I52  0.2+  0.4+
    200316 G96  0.1-  0.3-    200316 204  0.2+  0.2-    200317 474  0.4+  0.1-
    200316 G96  0.1-  0.8-    200317 204  0.8+  0.7-    200317 474  0.3-  0.1+
    200316 I52  0.2-  0.1+    200317 X31  0.3-  0.4+    200317 474  0.3+  0.1-
    200316 I52  0.3+  0.2+    200317 X31  0.6+  0.2-    200317 474  0.1-  0.0
    200316 I52  0.1-  0.2+    200317 X31  0.3+  0.2+    200317 474  0.3-  0.3-
    200316 I52  0.7-  0.1+    200317 807  0.2-  0.3-    200317 474  0.1-  0.0
    200316 L01  0.1-  0.4+    200317 807  0.0   0.1-    200317 474  0.3+  0.1-
    200316 L01  0.3-  0.4+    200317 807  0.2-  0.0     200317 474  0.4-  0.2+
    200316 L01  0.4+  0.2+    200317 807  0.0   0.3+
    200316 L01  0.5-  0.2+    200317 I52  0.3-  0.2+
    
    Ephemeris:
    2020 FG                  a,e,i = 2.37, 0.65, 2                   q = 0.8320
    Date    TT    R. A. (2000) Decl.     Delta      r    Elong.  Phase     V
    2020 02 16    10 37 02.7 +04 18 30   0.2971  1.2787   166.6    10.3    26.5
    ...
    2020 03 02    10 37 26.2 +03 24 02   0.1483  1.1389   174.7     4.6    24.4
    ...
    2020 03 10    10 38 46.4 +02 10 38   0.07637 1.0682   169.1    10.1    23.1
    ...
    2020 03 16    10 48 51.4 -03 11 26   0.02426 1.0182   165.4    14.3    20.7
    2020 03 17    10 57 19.2 -07 28 40   0.01577 1.0102   164.7    15.1    19.7
    2020 03 18    11 26 13.8 -21 07 37   0.0076341.0023   157.1    22.7    18.4
    ...
    2020 03 24    22 26 11.6 -08 26 11   0.04533 0.9574    28.4   150.3    29.6
    ...
    2020 04 01    22 33 24.8 -05 44 30   0.1155  0.9055    33.7   142.2    30.2
    ...
    2020 04 16    22 46 20.9 -04 00 25   0.2540  0.8426    44.8   122.9    29.6
    
    A. U. Tomatic                (C) Copyright 2020 MPC           M.P.E.C. 2020-F17
    


    Read MPEC 2020-F16 Read MPEC 2020-F18


    MPEC number:

    Enter an MPEC number in one of the following forms:

    • 1997-B01 (the full form)
    • J97B01 (the packed version of the full form)
    • B01 (the abbreviated form)